| time (UTC) | temp F | wind direction | speed MPH | gust MPH | rain 1hr in | rain 24hr in | rain mn in | humidity % | barometer mb |
| 20260505000023 | 58 | 214 | 1.0 | 2.0 | 0.00 | 0.13 | 0.03 | 95 | 1023.7 |
| 20260504235019 | 58 | 203 | 0.0 | 1.0 | 0.00 | 0.13 | 0.03 | 96 | 1023.7 |
| 20260504234036 | 58 | 236 | 0.0 | 1.0 | 0.00 | 0.13 | 0.03 | 96 | 1023.7 |
| 20260504233032 | 57 | 0.0 | 0.0 | 0.00 | 0.13 | 0.03 | 97 | 1023.6 | |
| 20260504232028 | 56 | 231 | 0.0 | 1.0 | 0.00 | 0.13 | 0.03 | 97 | 1023.6 |
| 20260504231025 | 56 | 200 | 0.0 | 1.0 | 0.00 | 0.13 | 0.03 | 97 | 1023.5 |
| 20260504230041 | 56 | 211 | 0.0 | 1.0 | 0.00 | 0.13 | 0.03 | 97 | 1023.4 |
| 20260504225017 | 56 | 189 | 0.0 | 1.0 | 0.00 | 0.13 | 0.03 | 97 | 1023.3 |
| 20260504224034 | 56 | 0.0 | 0.0 | 0.00 | 0.13 | 0.03 | 97 | 1023.3 | |
| 20260504223031 | 56 | 0.0 | 0.0 | 0.00 | 0.13 | 0.03 | 97 | 1023.1 | |
| 20260504222048 | 55 | 0.0 | 0.0 | 0.00 | 0.13 | 0.03 | 97 | 1023.0 | |
| 20260504221023 | 55 | 0.0 | 0.0 | 0.00 | 0.14 | 0.03 | 97 | 1023.0 | |
| 20260504220020 | 55 | 0.0 | 0.0 | 0.00 | 0.14 | 0.03 | 97 | 1022.9 | |
| 20260504215036 | 54 | 0.0 | 0.0 | 0.00 | 0.14 | 0.03 | 97 | 1022.8 | |
| 20260504214053 | 54 | 72 | 0.0 | 1.0 | 0.00 | 0.14 | 0.03 | 97 | 1022.8 |
| 20260504213029 | 54 | 0.0 | 0.0 | 0.00 | 0.14 | 0.03 | 97 | 1022.7 | |
| 20260504212047 | 54 | 0.0 | 0.0 | 0.00 | 0.14 | 0.03 | 97 | 1022.5 | |
| 20260504211022 | 53 | 0.0 | 0.0 | 0.00 | 0.14 | 0.03 | 97 | 1022.3 | |
| 20260504210018 | 53 | 0.0 | 0.0 | 0.00 | 0.14 | 0.03 | 97 | 1022.3 | |
| 20260504205035 | 53 | 0.0 | 0.0 | 0.00 | 0.15 | 0.03 | 97 | 1022.2 | |
| 20260504204031 | 53 | 0.0 | 0.0 | 0.00 | 0.15 | 0.03 | 97 | 1022.0 | |
| 20260504203028 | 53 | 0.0 | 0.0 | 0.00 | 0.15 | 0.03 | 97 | 1021.9 | |
| 20260504202024 | 53 | 0.0 | 0.0 | 0.00 | 0.15 | 0.03 | 97 | 1021.9 | |
| 20260504201023 | 53 | 0.0 | 0.0 | 0.00 | 0.15 | 0.03 | 97 | 1021.8 | |
| 20260504200017 | 53 | 0.0 | 0.0 | 0.00 | 0.15 | 0.03 | 97 | 1021.8 | |
| 20260504195034 | 53 | 0.0 | 0.0 | 0.00 | 0.15 | 0.03 | 97 | 1021.6 | |
| 20260504194031 | 53 | 0.0 | 0.0 | 0.00 | 0.15 | 0.03 | 97 | 1021.6 | |
| 20260504193026 | 53 | 0.0 | 0.0 | 0.00 | 0.15 | 0.03 | 97 | 1021.4 | |
| 20260504192023 | 52 | 0.0 | 0.0 | 0.00 | 0.15 | 0.03 | 97 | 1021.4 | |
| 20260504191019 | 51 | 0.0 | 0.0 | 0.00 | 0.15 | 0.03 | 97 | 1021.3 | |
| 20260504190036 | 51 | 0.0 | 0.0 | 0.00 | 0.17 | 0.03 | 96 | 1021.3 | |
| 20260504185032 | 52 | 0.0 | 0.0 | 0.00 | 0.17 | 0.03 | 96 | 1021.2 | |
| 20260504184028 | 53 | 0.0 | 0.0 | 0.00 | 0.17 | 0.03 | 96 | 1021.3 | |
| 20260504183024 | 53 | 0.0 | 0.0 | 0.00 | 0.17 | 0.03 | 96 | 1021.1 | |
| 20260504182041 | 53 | 74 | 0.0 | 1.0 | 0.01 | 0.17 | 0.03 | 96 | 1021.1 |
| 20260504181037 | 53 | 0.0 | 0.0 | 0.01 | 0.17 | 0.03 | 96 | 1021.0 | |
| 20260504180034 | 53 | 87 | 0.0 | 1.0 | 0.01 | 0.17 | 0.03 | 96 | 1021.0 |
| 20260504175031 | 53 | 0.0 | 0.0 | 0.01 | 0.17 | 0.03 | 96 | 1021.0 | |
| 20260504174027 | 54 | 0.0 | 0.0 | 0.01 | 0.17 | 0.03 | 96 | 1021.0 | |
| 20260504173044 | 54 | 84 | 0.0 | 1.0 | 0.01 | 0.17 | 0.03 | 96 | 1021.1 |
| 20260504172020 | 54 | 92 | 0.0 | 1.0 | 0.02 | 0.16 | 0.02 | 96 | 1021.2 |
| 20260504171016 | 53 | 85 | 1.0 | 2.0 | 0.02 | 0.16 | 0.02 | 96 | 1021.2 |
| 20260504151034 | 54 | 169 | 0.0 | 1.0 | 0.00 | 0.26 | 0.00 | 95 | 1021.2 |
| 20260504141032 | 52 | 0.0 | 0.0 | 0.00 | 0.31 | 0.31 | 95 | 1020.7 | |
| 20260504081022 | 61 | 203 | 3.0 | 8.0 | 0.00 | 0.52 | 0.21 | 68 | 1017.2 |
| 20260504070116 | 64 | 188 | 3.0 | 8.0 | 0.00 | 0.52 | 0.21 | 64 | 1016.6 |
| 20260504045030 | 69 | 198 | 5.0 | 10.0 | 0.00 | 0.58 | 0.21 | 54 | 1015.4 |
| 20260504044026 | 69 | 229 | 5.0 | 13.0 | 0.00 | 0.58 | 0.21 | 54 | 1015.2 |
| 20260504043022 | 69 | 203 | 4.0 | 11.0 | 0.00 | 0.58 | 0.21 | 56 | 1015.2 |
| 20260504042019 | 68 | 232 | 2.0 | 8.0 | 0.00 | 0.58 | 0.21 | 58 | 1015.1 |
| 20260504041036 | 68 | 204 | 6.0 | 11.0 | 0.00 | 0.58 | 0.21 | 57 | 1015.1 |
| 20260504040032 | 65 | 212 | 4.0 | 9.0 | 0.00 | 0.58 | 0.21 | 63 | 1015.2 |
| 20260504035028 | 66 | 205 | 5.0 | 11.0 | 0.00 | 0.58 | 0.21 | 60 | 1015.2 |
| 20260504034025 | 67 | 226 | 4.0 | 11.0 | 0.00 | 0.58 | 0.21 | 59 | 1015.1 |
| 20260504033021 | 66 | 228 | 3.0 | 11.0 | 0.00 | 0.58 | 0.21 | 61 | 1015.1 |
| 20260504032017 | 68 | 209 | 5.0 | 10.0 | 0.00 | 0.58 | 0.21 | 58 | 1015.1 |
| 20260504031034 | 65 | 208 | 7.0 | 15.0 | 0.00 | 0.58 | 0.21 | 63 | 1015.2 |
| 20260504030031 | 64 | 184 | 4.0 | 13.0 | 0.00 | 0.58 | 0.21 | 66 | 1015.3 |
| 20260504025055 | 64 | 208 | 6.0 | 15.0 | 0.00 | 0.58 | 0.21 | 67 | 1015.4 |
| 20260504024044 | 65 | 202 | 5.0 | 14.0 | 0.00 | 0.58 | 0.21 | 63 | 1015.5 |
| 20260504023020 | 66 | 192 | 6.0 | 15.0 | 0.00 | 0.58 | 0.21 | 62 | 1015.4 |
| 20260504022017 | 68 | 191 | 5.0 | 13.0 | 0.00 | 0.58 | 0.21 | 59 | 1015.4 |
| 20260504021033 | 66 | 229 | 3.0 | 7.0 | 0.00 | 0.58 | 0.21 | 67 | 1015.5 |
| 20260504020030 | 64 | 230 | 6.0 | 14.0 | 0.00 | 0.58 | 0.21 | 69 | 1015.5 |
| 20260504015026 | 65 | 206 | 3.0 | 9.0 | 0.00 | 0.58 | 0.21 | 66 | 1015.5 |
| 20260504014043 | 68 | 190 | 6.0 | 19.0 | 0.00 | 0.58 | 0.21 | 61 | 1015.3 |
| 20260504013020 | 66 | 233 | 5.0 | 10.0 | 0.00 | 0.58 | 0.21 | 64 | 1015.2 |
| 20260504012036 | 65 | 235 | 4.0 | 9.0 | 0.00 | 0.58 | 0.21 | 66 | 1015.2 |
| 20260504011032 | 64 | 226 | 5.0 | 10.0 | 0.00 | 0.58 | 0.21 | 67 | 1015.1 |
| 20260504010028 | 65 | 215 | 4.0 | 9.0 | 0.00 | 0.58 | 0.21 | 67 | 1015.1 |
| 20260504005106 | 64 | 233 | 5.0 | 13.0 | 0.00 | 0.58 | 0.21 | 69 | 1015.0 |
| 20260504004021 | 62 | 197 | 3.0 | 6.0 | 0.00 | 0.58 | 0.21 | 75 | 1014.9 |
| 20260504003024 | 63 | 220 | 4.0 | 9.0 | 0.00 | 0.58 | 0.21 | 76 | 1014.8 |
| 20260504002033 | 62 | 207 | 2.0 | 7.0 | 0.00 | 0.58 | 0.21 | 78 | 1014.6 |
| 20260504001029 | 62 | 238 | 4.0 | 9.0 | 0.00 | 0.58 | 0.21 | 77 | 1014.5 |